Regional Weather Roundup
Issued by NWS Charleston, SC

Current Version | Previous Version | Text Only | Print | Product List | Glossary Off
Versions: 1 2 3 4 5 6 7 8 9 10 11 12 13 14 15 16 17 18 19 20 21 22 23 24 25 26 27 28 29 30 31 32 33 34 35 36 37 38 39 40 41 42 43 44 45 46 47 48 49 50
000 ASUS42 KCHS 261025 RWRCHS REGIONAL WEATHER ROUNDUP NATIONAL WEATHER SERVICE CHARLESTON SC 500 AM EST MON JAN 26 2015 NOTE: "FAIR" INDICATES FEW OR NO CLOUDS BELOW 12,000 FEET WITH NO SIGNIFICANT WEATHER AND/OR OBSTRUCTIONS TO VISIBILITY. NOT ALL STATIONS ARE QUALITY CONTROLLED BY THE NATIONAL WEATHER SERVICE. USE DATA WITH CAUTION...ESPECIALLY DEWPOINT OBSERVATIONS. SCZ027-030-031-034>040-042>050-261100- ...SOUTHEAST SOUTH CAROLINA... CITY SKY/WX TMP DP RH WIND PRES REMARKS N CHARLESTON CLOUDY 51 46 83 SW9 29.73F WATERFRONT PRK N/A 54 N/A N/A SW10 N/A MOUNT PLEASANT FAIR N/A N/A N/A SW10 29.72F PINOPOLIS NOT AVBL MONCKS CORNER FAIR 50 45 81 SW7 29.71F SUMMERVILLE NOT AVBL BEAUFORT MCAS MOCLDY 50 46 86 SW10 29.73F BEAUFORT ARPT FAIR 52 48 87 SW7 29.73F HILTON HEAD IS NOT AVBL WALTERBORO PTSUNNY 46 N/A N/A SW6 29.72F ALLENDALE FAIR 45 43 93 CALM 29.70F ...SOUTHERN MIDLANDS AND PEE DEE... CITY SKY/WX TMP DP RH WIND PRES REMARKS GEORGETOWN NOT AVBL KINGSTREE NOT AVBL ORANGEBURG PTCLDY 40 36 86 CALM 29.69F BARNWELL N/A 43 39 87 SW5 29.70S AIKEN FAIR 41 39 93 W3 29.71S MANNING NOT AVBL COLUMBIA CLEAR 41 35 79 W5 29.67F SUMTER PTCLDY 41 37 87 SE3 29.66F FLORENCE MOCLDY 44 40 85 CALM 29.69F MYRTLE BEACH MOCLDY 52 45 76 SW10 29.72S N MYRTLE BEACH MOCLDY 51 45 79 SW9 29.70F $$ GAZ063-065-086>088-099>101-113>116-118-119-134>141-150-261100- ...SOUTHEAST GEORGIA... CITY SKY/WX TMP DP RH WIND PRES REMARKS SAVANNAH ARPT MOCLDY 48 44 86 SW6 29.74F HUNTER AAF MOCLDY 50 47 91 SW7 29.72F FORT STEWART PTCLDY 46 44 91 S3 29.74F STATESBORO CLEAR 46 46 100 W6 29.72F SYLVANIA SUNNY 45 44 99 W3 29.72F CLAXTON FAIR 46 46 100 W5 29.74F ...CSRA...CENTRAL AND FAR SOUTHEAST GEORGIA... CITY SKY/WX TMP DP RH WIND PRES REMARKS THOMSON CLEAR 45 41 86 SW5 29.75S AUGUSTA-BUSH CLEAR 45 39 79 W8 29.70F AUGUSTA-DANIEL CLEAR 47 39 74 W5 29.69F SWAINSBORO FAIR 45 45 100 W3 29.74S VIDALIA CLEAR 46 45 93 W5 29.74F EASTMAN FAIR 47 47 98 W7 29.79S HAZLEHURST FAIR 49 49 100 W3 29.75S ALMA CLEAR 47 46 97 W6 29.76F WAYCROSS CLEAR 49 49 99 W5 29.77S JESUP FAIR 50 50 100 W6 29.76F BAXLEY FAIR 48 46 93 W3 29.75S BRUNSWICK CLOUDY 52 46 82 SW6 29.77F SAINT SIMONS CLOUDY 52 49 89 SW8 29.77R $$ SCZ027-028-034-036>038-045-046-048>050-GAZ119-141-261100- ...LAKE AND SUPPLEMENTAL COASTAL OBSERVATIONS... STATION/POSITION TIME TEMP WIND PRES WAVE SWELL AIR SEA DIR/SP/G HT/PER HT/PER/DIR (UTC) (F) (DEG/KT/KT) (MB) (FT/S) (FT/S/D) UPR LAKE MARION NOT AVBL WINYAH BAY 1000 51 240/ 5 1005.0S LAKE MURRAY 1000 47 240/ 7/ 9 1004.1S ACE BASIN NERRS NOT AVBL FORT PULASKI 1000 220/ 6/ 8 N/A SAPELO ISLAND 1000 51 200/ 7 1008.0S $$ ANZ835-935-AMZ111-154-330-350-352-354-370-450-454-472-261100- ...C-MAN AND BUOY OBSERVATIONS... STATION/POSITION TIME TEMP WIND PRES WAVE SWELL AIR SEA DIR/SP/G HT/PER HT/PER/DIR (UTC) (F) (DEG/KT/KT) (MB) (FT/S) (FT/S/D) BUOY 41004 1000 61 69 260/ 25/ 29 1005.6F 8/ 7 2/11 BUOY 41008 1000 56 55 220/ 16/ 17 1007.6F 4/ 6 FOLLY BEACH CMAN 1000 53 230/ 10/ 14 1007.1F CAPERS NEARSHORE 0900 54 240/ 17/ 19 N/A FRIPP NEARSHORE 0900 54 230/ 16/ 17 N/A STATION/POSITION TIME TEMP WIND PRES WAVE SWELL AIR SEA DIR/SP/G HT/PER HT/PER/DIR (UTC) (F) (DEG/KT/KT) (MB) (FT/S) (FT/S/D) 5E ST. MARYS GA 1000 58 N/A 3/ 4 FRYING PAN BUOY 1000 61 67 220/ 21/ 25 1006.2F 6/ 7 BUOY 41025 1000 62 69 240/ 10/ 12 1006.3F 4/ 8 3/ 70/ 8 CAPE LOOKOUT NC 1000 51 300/ 4/ 4 1006.3F BUOY 41002 0932 69 72 240/ 17/ 21 1009.6F 5/ 5 2/ 80/15 BUOY 41010 1000 67 76 260/ 17/ 23 1011.2F 5/ 5 2/100/10 ST AUGUSTINE FL 1000 53 210/ 8/ 10 1009.6F $$

USA.gov is the U.S. government's official web portal to all federal, state and local government web resources and services.